Wind_Speed
4 10 18 17 17 16 16 16 12 14 14 15 16 14 13 11 10 11 12 13 16 16 13 12 13 12 14 15 12 12 14 14 12 13 13 13 11 10 11 12 14 15 14
6 11 19 18 17 16 16 16 15 15 14 14 13 13 13 12 11 11 12 13 13 13 15 14 13 15 14 12 10 13 13 15 14 14 16 15 15 15 15 15 14 12 12
4 10 16 17 18 17 16 16 16 15 15 15 14 12 12 12 11 12 12 12 12 14 16 16 15 13 12 12 12 12 13 13 13 13 14 9 9 11 10 11 11 10 9
3 9 13 16 17 18 16 16 15 16 15 15 14 13 12 11 11 13 13 13 14 13 17 19 18 16 16 13 14 11 13 11 11 10 6 6 6 8 8 8 9 9 9
4 8 9 14 15 17 17 16 15 14 14 15 16 14 13 13 11 12 13 15 16 12 15 19 16 15 16 16 14 13 11 10 9 8 6 6 6 6 7 8 8 9 9
4 7 9 13 14 14 15 16 16 16 14 13 12 12 14 13 13 13 12 14 16 13 17 18 14 15 15 15 15 12 11 10 9 6 6 7 6 6 7 7 8 8 8
5 7 8 13 12 12 15 14 15 15 16 15 14 13 13 13 14 15 13 15 15 14 20 17 14 14 14 13 12 11 11 10 7 6 6 6 6 8 7 7 7 7 7
4 6 8 11 13 12 12 13 14 15 14 14 15 15 15 14 14 14 15 16 15 16 20 16 15 15 14 11 12 11 10 11 9 7 6 6 7 7 6 6 7 7 6
5 3 8 9 11 14 15 15 13 13 14 14 14 15 14 14 14 14 16 16 16 19 19 15 14 15 14 12 12 11 10 9 8 8 7 6 8 7 6 5 5 6 6
11 6 5 9 11 11 12 16 15 16 15 15 15 16 16 15 14 14 15 17 18 21 20 15 14 17 16 14 13 11 9 8 7 8 8 8 9 7 7 6 5 5 5
11 12 10 10 10 13 14 13 15 15 16 17 17 17 15 14 14 14 15 17 18 21 20 17 15 18 17 15 13 13 12 7 7 7 7 11 11 9 7 6 5 5 4
13 13 11 11 11 14 15 15 14 13 12 12 14 14 15 15 15 15 16 19 20 21 19 17 16 18 18 13 12 15 13 10 9 8 7 11 11 10 9 8 7 6 6
16 14 13 13 10 13 14 15 15 18 17 14 13 13 14 15 15 15 15 16 19 21 17 16 15 16 16 15 14 14 14 12 11 10 9 11 11 10 11 10 10 9 8
20 20 16 13 12 12 16 14 17 19 17 17 11 12 13 15 15 15 17 16 18 19 19 17 15 16 18 18 16 15 14 13 12 11 11 13 13 12 12 12 12 11 10
22 22 19 15 13 11 14 17 15 17 21 16 12 12 13 15 15 15 18 16 18 18 19 18 16 16 18 18 18 18 17 15 13 12 11 14 15 15 14 14 14 13 13
23 22 21 19 15 13 13 18 19 15 19 18 15 14 14 14 14 15 15 16 17 18 21 20 18 18 18 18 19 19 18 16 15 15 13 12 16 18 18 17 17 16 16
27 25 22 22 19 16 15 15 21 16 17 21 16 12 17 13 13 12 13 15 16 19 22 25 21 17 19 17 17 17 18 18 16 16 16 14 14 17 20 20 19 18 18
28 30 26 22 21 19 18 16 20 17 18 20 17 10 13 17 16 12 12 12 13 15 17 19 19 20 21 19 17 17 16 17 15 17 17 16 15 15 16 23 22 22 20
26 27 28 23 22 21 19 18 19 24 22 17 19 23 20 21 17 15 14 14 13 16 18 21 20 20 20 22 26 20 18 17 17 19 19 18 17 18 17 19 24 25 24
23 23 22 21 20 19 19 18 19 24 28 23 19 18 19 16 15 16 16 16 16 17 18 21 21 21 20 20 25 17 19 18 20 20 20 19 20 20 19 20 19 24 27
20 21 22 19 19 18 19 17 18 21 22 24 27 22 25 29 24 23 18 16 16 22 20 22 22 20 19 19 15 20 24 27 27 23 21 20 20 19 22 23 22 21 21
19 19 18 19 20 18 20 19 13 15 18 16 14 16 20 18 18 18 16 16 16 19 19 21 19 18 19 18 13 17 9 20 25 30 30 29 26 29 27 27 25 24 23
17 16 17 19 20 20 19 17 13 10 8 10 8 10 12 14 14 14 15 17 14 17 20 22 22 21 19 18 21 16 4 8 15 21 27 28 29 29 30 32 32 28 28
19 17 16 17 15 15 15 16 15 12 10 7 5 4 4 7 9 12 14 16 17 17 18 19 21 21 21 19 15 27 27 10 2 8 23 21 23 27 29 29 31 29 29
20 12 9 9 8 12 12 12 10 11 5 3 2 5 5 8 11 11 12 15 16 17 17 19 21 23 25 26 25 16 23 23 25 11 7 7 9 19 25 26 27 27 31
18 16 14 12 14 17 17 12 7 7 6 6 6 5 5 8 9 5 8 12 15 18 17 22 23 28 26 29 29 28 26 15 20 17 12 17 16 21 18 18 20 22 31
Wind_Direction
258 185 178 181 175 174 173 171 164 167 169 165 162 165 165 161 160 159 155 154 150 151 148 147 146 142 135 125 118 116 122 125 125 107 118 110 105 103 105 107 99 96 90
294 189 183 185 180 177 175 175 171 168 168 167 174 174 173 165 169 167 165 162 161 174 157 148 147 141 133 133 131 124 117 123 125 115 103 108 98 101 103 104 100 96 90
288 194 183 189 189 186 182 178 176 172 174 176 182 183 181 181 180 172 174 175 170 156 155 154 151 144 150 144 139 129 129 131 132 128 109 112 105 102 102 105 99 91 89
252 203 191 199 194 195 191 186 186 180 183 183 184 188 189 199 192 182 181 180 181 176 164 161 158 161 159 153 145 138 141 142 144 131 111 117 112 105 103 103 93 91 88
236 206 202 205 200 198 196 193 190 189 192 190 191 190 200 208 198 193 188 183 180 188 172 167 173 168 159 153 153 154 155 154 150 122 130 123 116 113 105 96 88 92 99
248 214 211 202 208 208 205 201 198 193 197 197 203 198 210 205 199 198 196 185 185 190 177 176 174 166 160 156 157 160 165 160 134 143 134 131 122 127 107 102 99 96 95
280 210 210 210 212 213 208 207 211 210 206 204 205 207 220 212 204 206 200 200 199 196 182 178 174 169 168 166 166 168 166 161 150 149 144 136 137 128 124 119 114 110 105
288 231 218 223 226 228 217 217 216 219 220 222 218 212 215 220 217 214 210 215 215 201 188 179 182 178 179 188 187 186 175 164 152 158 154 147 161 140 138 133 128 124 121
342 279 239 232 233 239 234 231 225 223 226 229 229 229 227 225 226 220 218 218 211 204 193 186 189 184 179 177 182 190 184 172 172 168 164 163 166 157 154 150 142 137 134
15 341 268 244 238 234 235 234 231 229 227 232 235 235 236 233 233 229 223 220 209 207 204 203 198 192 186 186 190 193 197 189 189 182 175 181 177 176 172 170 164 160 158
355 1 350 273 251 240 236 234 234 236 236 235 238 239 235 234 234 232 225 221 214 213 211 212 208 199 195 195 200 203 203 212 211 204 200 204 179 187 193 191 187 187 185
323 332 340 331 278 247 238 235 227 227 230 236 236 231 231 232 230 226 225 220 215 213 217 219 215 206 203 203 208 208 209 215 215 223 220 216 194 193 202 208 205 204 207
301 303 314 326 303 262 240 236 232 230 232 227 233 234 231 230 230 228 226 220 216 212 211 212 214 209 206 209 205 211 214 221 219 220 229 226 216 209 215 218 219 216 216
292 289 292 302 308 281 251 239 232 228 228 228 228 233 227 228 226 224 224 222 214 213 214 208 212 213 214 213 214 215 222 223 229 229 228 228 228 226 226 231 232 230 229
288 283 279 283 291 280 264 243 234 227 230 226 228 238 232 227 227 224 227 223 219 217 215 215 217 214 217 216 218 221 223 228 234 237 240 242 232 235 233 234 239 238 238
283 283 278 270 268 266 256 246 236 230 224 225 230 244 244 236 230 226 226 222 224 223 217 215 221 215 218 223 227 223 228 229 232 238 244 251 246 238 237 236 235 239 239
277 279 276 268 260 250 247 241 237 226 217 217 227 239 255 243 240 227 224 225 225 226 235 226 229 227 225 223 228 232 236 237 236 240 240 248 258 252 240 239 240 237 241
273 268 271 268 258 251 239 231 229 217 206 197 209 191 253 252 231 226 229 233 235 237 230 226 230 234 233 222 224 230 233 240 242 248 246 244 248 256 258 245 242 243 239
275 270 263 266 256 250 242 230 223 212 208 215 213 222 206 223 242 243 242 241 240 236 232 230 230 229 223 222 221 217 230 238 243 249 248 249 250 248 251 255 245 244 244
278 273 263 266 259 251 245 231 218 212 211 218 218 219 214 220 235 251 248 251 246 241 239 240 236 230 229 226 227 237 242 245 247 244 247 249 253 254 251 250 249 248 244
279 269 263 265 260 253 243 229 212 202 206 218 221 226 226 220 234 238 245 250 243 239 241 242 238 238 231 231 224 233 248 247 245 249 246 246 246 254 257 251 247 246 247
281 274 269 264 260 250 240 231 223 204 210 214 225 226 228 222 224 230 237 244 241 247 240 243 233 229 233 230 224 238 251 246 250 245 244 247 249 254 250 248 246 239 239
300 286 270 264 263 246 232 230 212 187 163 173 208 228 230 228 228 230 235 238 238 240 246 238 240 232 237 230 220 220 204 237 251 237 239 242 244 243 244 240 239 237 238
327 309 282 264 263 243 219 216 206 205 170 160 168 213 238 236 236 238 240 242 241 242 240 243 243 239 235 234 224 225 234 234 240 251 245 240 235 253 246 240 236 237 235
355 319 293 263 246 221 216 228 218 174 141 144 271 266 256 266 257 250 248 249 248 251 250 252 245 244 236 227 224 224 230 238 238 244 261 260 235 240 242 240 242 240 238
7 22 41 68 61 80 83 104 66 59 61 72 38 347 304 288 272 271 270 268 266 263 259 257 255 253 242 237 232 228 230 226 227 226 235 241 251 253 251 243 238 241 242
Height
798 798 799 800 801 802 803 804 806 807 808 809 810 811 813 814 814 814 814 814 815 816 818 818 819 819 819 820 820 819 820 821 821 821 822 822 821 821 821 821 821 822 821
799 799 800 801 802 803 803 805 806 807 809 811 812 813 813 814 815 816 816 816 817 817 818 819 820 820 821 822 821 821 822 822 823 823 824 824 824 823 823 823 823 823 823
799 800 801 801 802 803 804 805 806 807 809 810 812 813 814 815 815 816 817 818 819 818 819 820 820 821 823 824 823 823 823 824 825 825 825 827 827 826 826 826 825 825 825
800 801 802 802 803 804 805 806 807 808 809 811 811 812 814 815 816 816 817 818 819 820 819 820 821 821 822 824 824 825 825 826 826 827 828 828 829 828 827 827 827 826 826
801 801 802 803 804 804 806 807 808 809 811 812 813 813 814 816 817 818 817 817 819 820 821 821 822 822 822 823 824 825 826 827 828 829 829 830 830 829 829 828 828 828 828
802 802 803 804 804 805 806 807 808 809 810 812 814 815 815 815 816 818 818 819 820 820 821 822 823 824 824 824 824 825 826 827 828 831 830 830 831 830 830 829 829 829 829
802 803 804 805 805 805 806 807 809 810 810 812 813 814 815 815 815 817 819 819 820 820 820 822 823 825 827 827 827 826 826 827 830 831 831 831 831 831 831 830 830 830 830
802 803 804 805 805 807 807 807 808 809 811 812 813 813 813 814 815 816 817 818 819 820 820 821 823 824 826 828 828 828 828 827 829 831 832 833 831 832 832 832 831 831 831
802 803 804 805 805 805 806 807 807 808 809 811 812 813 813 814 814 815 815 817 818 818 820 821 823 824 825 827 829 829 829 829 830 830 831 833 831 832 832 832 832 832 831
804 803 802 803 804 805 805 805 806 807 807 808 810 811 812 812 813 814 815 815 817 817 819 819 821 823 824 826 828 829 830 829 830 830 829 831 831 833 832 832 832 832 832
805 804 802 801 802 803 804 804 804 805 806 807 808 809 810 811 812 813 813 814 815 816 818 819 820 821 823 825 827 828 829 831 831 830 830 828 828 831 832 832 832 832 832
804 803 803 801 800 800 801 802 802 803 804 806 807 807 808 809 809 810 811 812 813 815 816 818 819 820 822 825 826 826 827 828 829 830 830 828 828 829 831 831 831 831 832
803 801 801 799 798 796 797 799 800 800 800 801 804 805 805 806 806 807 809 809 811 813 815 816 818 819 820 823 824 826 826 827 827 827 828 828 828 829 830 830 830 830 830
801 799 798 797 796 794 794 795 796 797 797 798 800 802 803 804 803 804 806 807 808 811 812 813 815 816 818 820 821 823 824 825 825 825 825 825 827 828 829 829 829 829 829
796 795 795 794 792 792 790 790 792 793 794 795 797 800 800 800 801 801 802 804 805 807 809 811 812 813 815 817 818 819 820 822 823 824 824 823 824 825 827 828 828 828 828
792 791 790 789 788 787 787 787 787 790 790 792 793 795 798 798 797 798 799 800 801 803 805 806 808 809 812 814 816 816 818 818 819 821 822 822 821 821 823 824 825 826 826
788 786 785 785 784 782 782 782 783 785 787 787 790 790 794 796 795 796 797 798 797 799 800 802 805 806 808 810 813 814 816 816 815 817 817 819 820 819 819 820 821 822 823
783 781 780 780 779 778 776 776 777 781 783 785 786 787 790 791 792 794 795 796 796 797 798 799 801 802 804 806 808 811 812 813 813 814 814 814 815 817 817 816 816 818 819
777 776 775 775 774 774 773 772 772 775 778 781 782 784 784 786 790 793 792 792 793 794 795 796 796 798 799 801 803 802 806 808 807 810 809 810 810 811 812 813 812 813 815
771 772 771 770 769 769 769 768 767 769 772 777 779 780 780 783 789 792 790 789 789 789 789 791 792 794 795 796 798 797 801 801 803 804 803 804 805 807 807 809 809 808 808
768 767 766 766 765 765 765 765 762 763 766 770 773 777 779 779 783 786 786 786 784 785 785 786 788 789 790 792 793 795 795 794 795 798 797 797 798 800 803 804 804 804 804
762 761 760 760 760 758 761 761 760 759 760 766 771 775 777 777 778 781 780 781 781 781 781 782 783 784 786 787 787 790 789 788 788 785 787 788 789 789 793 797 798 797 797
758 754 755 754 754 753 757 757 756 758 759 762 768 771 773 773 774 773 774 777 775 778 775 778 779 778 779 781 783 784 784 780 778 778 777 777 780 783 783 787 789 788 789
758 752 750 750 750 750 752 754 754 754 755 759 764 768 769 770 770 770 771 771 772 773 771 771 773 774 776 777 778 778 776 776 777 774 771 773 770 775 777 779 779 781 781
758 753 749 746 746 747 747 751 748 753 755 759 762 764 766 768 769 768 767 768 768 767 765 766 767 769 769 769 770 771 772 773 773 776 772 769 767 769 771 772 772 772 774
763 756 750 747 746 746 748 748 745 751 758 759 760 762 763 764 766 764 763 763 762 761 761 762 761 762 762 762 762 761 762 763 763 765 764 762 763 762 764 765 763 762 765